Location: Abraham Lincoln Continuation High School
(33.9711°N, 117.3662°W)
Time: 10:42:56
(UTC+00:00)

Lacrosse 5 - Visible Passes

Search period start: 17 January 2021 00:00
Search period end: 27 January 2021 00:00
Orbit: 713 x 726 km, 57.0° (Epoch: 12 January)

Date Brightness Start Highest point End Pass type
(mag) Time Alt. Az. Time Alt. Az. Time Alt. Az.
18 Jan 3.9 02:52:32 10° N 02:53:48 14° N 02:53:48 14° N visible
19 Jan 3.9 02:00:57 10° NNE 02:02:11 11° NNE 02:03:05 10° NE visible
19 Jan 4.1 03:41:18 10° NNW 03:42:19 16° NNW 03:42:19 16° NNW visible
20 Jan 3.1 02:48:31 10° NNW 02:51:44 26° NNE 02:51:44 26° NNE visible
21 Jan 3.4 01:56:04 10° N 01:59:23 17° NE 02:01:19 14° ENE visible
21 Jan 3.2 03:37:50 10° NW 03:40:34 32° NW 03:40:34 32° NW visible
22 Jan 2.0 02:44:48 10° NNW 02:49:44 51° NE 02:50:25 48° ENE visible
22 Jan 4.7 04:28:44 10° WNW 04:29:43 14° W 04:29:43 14° W visible
23 Jan 2.8 01:52:03 10° NNW 01:56:24 28° NE 02:00:36 11° E visible
23 Jan 2.9 03:34:44 10° NW 03:39:26 40° WSW 03:39:55 39° SW visible
24 Jan 1.8 02:41:21 10° NW 02:46:25 83° SW 02:50:36 15° SE visible
25 Jan 2.0 01:48:19 10° NNW 01:53:15 51° NE 01:58:08 10° ESE visible
25 Jan 4.3 03:32:13 10° WNW 03:35:51 20° WSW 03:39:27 10° SSW visible
26 Jan 3.2 02:38:14 10° NW 02:42:57 41° WSW 02:47:39 10° SSE visible
